{"data":{"norad_id":43075,"epoch":"2026-05-25T00:47:15.012096Z","epoch_age_seconds":72148,"freshness":"FRESH","line1":"1 43075U 17083F   26145.03281264 -.00000194  00000+0 -76216-4 0  9993","line2":"2 43075  86.3955 331.7513 0002073  85.3215 274.8217 14.34215861440785","mean_motion":14.34215861,"eccentricity":0.0002073,"inclination_deg":86.3955,"raan_deg":331.7513,"arg_perigee_deg":85.3215,"mean_anomaly_deg":274.8217,"bstar":-7.6216e-5,"rev_number":44078,"period_min":100.40329626504,"perigee_km":776.1900381025,"apogee_km":779.15683710993,"semimajor_km":7155.8104376062,"source":"CELESTRAK","updated_at":"2026-05-25T13:38:14.805770Z"}}